Terug naar catalogus

ARABSAT 2A

ActiefCommunicatieGEO
NORAD 23948·PAYLOAD·🇦🇪 UAE🇸🇦 Saudi Arabia

Gelanceerd Jul 9, 1996 vanaf Guiana Space Centre

Loading…

TLE

VersSource: Space-Track

Epoch: Sep 13, 2026, 21:00 UTC

1 23948U 96040A   26256.87500252  .00000058  00000-0  00000+0 0  9997
2 23948  14.3117   8.3654 0005377 180.0455 183.5805  0.99224977109746

Volg ARABSAT 2A in realtime met AllMySat

Download on the App Store